Location: Bow
(51.5261°N, 0.0167°W)
Time: 05:15:55
(UTC+00:00)

Cosmos 2263 Rocket - Pass Details

Date: 18 September 2020
Orbit: 822 x 849 km, 71.0° (Epoch: 20 October)

Event Time Altitude Azimuth Distance (km) Brightness Sun altitude
Rises 19:31:47 0° 217° (SW) 3,349 5.5 -13.8°
Reaches altitude 10° 19:34:13 10° 220° (SW) 2,421 4.8 -14.1°
Maximum altitude 19:39:45 68° 303° (WNW) 892 2.5 -14.9°
Drops below altitude 10° 19:45:21 10° 27° (NNE) 2,450 4.6 -15.7°
Sets 19:47:49 0° 30° (NNE) 3,392 5.3 -16.1°
